Theta_e
322 322 323 323 324 325 327 328 329 330 330 330 331 332 334 335 335 335 336 337 337 337 336 335 334 334 331 331 334 327 321 319 330 335 335 335 333 332 329 324 321 323 329
321 320 321 321 323 324 325 326 328 329 330 331 330 330 330 332 333 334 334 335 336 336 336 336 336 336 334 332 333 333 325 320 321 326 335 334 327 323 325 327 325 319 319
318 319 320 319 320 323 325 327 327 328 329 330 330 330 330 330 331 332 333 332 334 335 335 335 335 335 335 333 335 335 332 323 326 325 325 325 325 325 318 319 325 320 320
316 317 318 318 318 319 321 325 326 327 328 328 327 328 329 330 330 330 330 331 331 332 333 334 334 335 335 334 334 335 332 326 328 330 330 330 327 328 324 317 323 320 319
315 316 316 315 316 318 318 321 324 325 322 324 325 325 326 327 328 330 330 330 330 331 332 332 333 334 334 335 334 334 332 330 325 330 329 329 331 331 331 324 321 323 317
313 314 314 314 314 314 316 318 321 316 316 317 319 316 319 323 324 326 329 330 331 331 330 330 332 333 333 333 333 333 333 331 327 325 329 329 330 333 329 330 330 323 323
312 313 312 312 313 313 311 312 312 311 312 311 312 313 312 311 314 317 321 325 328 329 331 331 330 330 331 332 332 333 334 333 328 326 327 329 330 332 330 327 326 327 326
311 312 313 310 311 313 311 312 313 311 310 307 306 306 308 307 306 308 310 313 318 323 327 329 330 330 330 331 331 331 332 332 330 328 327 329 329 332 333 331 330 327 324
309 310 310 310 309 309 308 310 306 308 307 303 302 302 301 304 304 305 303 306 308 309 314 319 324 327 329 330 330 331 331 330 330 329 328 328 330 330 332 332 333 330 326
305 305 306 306 306 307 306 303 301 301 301 303 302 299 297 298 299 300 302 302 302 303 304 306 310 315 322 326 327 328 330 331 331 330 329 328 329 328 331 332 332 331 330
300 301 302 303 301 300 301 300 298 297 297 298 298 297 297 297 297 297 297 298 298 299 300 301 303 304 307 311 317 321 323 327 330 331 330 329 329 330 331 332 332 331 331
298 298 299 299 298 297 297 296 296 296 296 296 296 296 296 296 296 296 296 297 298 298 298 298 299 300 301 302 304 308 312 318 324 328 329 330 329 329 331 332 332 332 331
298 297 297 296 296 295 295 295 295 295 295 295 295 295 295 295 295 295 295 295 296 296 296 297 297 297 298 298 299 301 303 306 313 320 325 327 329 329 328 331 331 331 331
299 298 296 295 294 294 293 294 294 294 293 293 293 293 293 293 294 294 294 294 294 295 295 295 295 296 296 296 297 298 298 300 301 306 314 320 325 326 329 329 328 329 330
298 297 296 295 294 293 293 293 293 293 293 293 293 293 293 293 293 293 293 293 293 293 294 294 294 294 295 295 295 296 296 297 297 298 301 305 311 320 324 327 328 328 327
297 297 295 294 293 293 292 292 292 292 292 292 292 292 292 292 292 292 292 292 291 292 292 292 293 293 293 293 294 294 295 295 295 296 296 297 298 301 308 319 324 326 327
297 296 294 293 292 292 292 291 292 292 291 291 291 291 290 290 290 290 291 291 291 291 291 291 291 292 292 292 292 292 293 294 294 294 295 295 295 295 296 299 309 320 325
296 294 293 292 291 291 291 290 290 290 290 289 290 289 289 289 289 289 289 289 289 289 289 290 290 291 291 291 291 291 292 292 292 293 293 293 294 294 294 294 296 299 307
297 295 293 291 291 290 289 289 289 289 288 288 288 288 288 287 287 287 287 287 288 288 288 289 289 290 290 290 290 291 291 291 291 292 292 292 292 293 293 293 294 294 295
295 294 292 291 289 289 289 288 288 287 287 287 287 287 287 287 286 286 286 286 286 286 286 286 287 288 289 289 289 289 289 289 289 289 290 290 290 291 291 292 292 293 294
294 293 292 291 289 289 288 288 288 288 287 287 286 286 286 286 286 285 285 285 285 285 285 285 285 285 286 287 288 288 288 288 288 288 288 288 289 289 289 290 290 291 291
294 293 292 290 289 289 288 288 288 287 287 286 286 286 285 285 285 285 285 285 285 285 284 284 285 285 285 286 286 286 287 287 288 288 288 287 288 288 288 288 289 289 290
293 292 292 290 289 289 288 287 287 287 286 286 286 286 285 285 285 285 285 284 284 284 284 284 284 284 284 284 285 285 285 285 286 287 288 287 287 287 287 287 288 288 288
293 292 291 290 289 288 288 287 287 288 287 287 286 286 285 285 285 284 284 284 284 284 284 284 284 284 284 284 284 284 284 284 283 285 286 286 286 286 287 287 287 287 288
292 292 291 290 288 288 288 287 287 287 287 287 286 286 285 285 284 284 284 284 283 283 283 283 283 283 283 283 283 283 283 282 282 282 283 285 286 286 286 286 287 287 287
292 291 291 289 288 287 287 287 287 287 287 287 286 285 285 284 284 283 283 283 283 283 283 283 283 283 283 283 283 283 283 282 282 281 281 282 282 285 285 285 285 286 286
Wind_Speed
32 25 20 13 17 16 17 13 9 7 6 6 7 9 10 9 9 11 13 18 18 16 13 10 8 5 6 8 10 10 11 13 12 12 13 14 13 12 12 11 10 10 12
32 29 21 16 19 19 17 14 11 9 8 8 8 9 8 8 7 6 8 9 12 15 16 13 14 12 6 7 6 8 9 10 11 11 10 10 9 9 9 10 9 8 6
30 28 22 16 17 19 16 17 15 12 12 11 8 7 8 8 8 7 5 5 5 5 6 10 10 11 12 11 10 7 7 10 10 10 10 8 7 8 9 8 7 8 8
29 28 24 16 13 14 13 12 8 8 13 12 8 7 7 8 8 10 9 9 8 7 6 5 5 8 10 13 13 9 8 8 9 8 6 7 7 8 9 8 7 7 6
28 25 20 14 13 11 11 10 13 13 13 13 11 9 8 6 8 7 9 11 10 10 8 8 8 8 8 9 10 8 7 9 9 8 5 7 9 8 10 10 8 7 6
29 26 19 16 13 12 10 11 15 12 12 12 10 9 9 8 8 7 9 9 10 11 11 9 9 11 11 10 7 6 8 8 8 7 7 7 8 6 8 7 8 5 5
30 27 22 16 16 14 11 11 11 10 10 9 10 9 7 8 8 8 9 10 9 10 10 12 12 11 11 10 6 7 9 8 9 9 9 8 7 4 5 5 5 5 3
30 28 24 17 16 16 15 15 13 10 8 7 6 7 8 8 8 10 10 11 11 11 11 12 12 12 13 12 8 6 7 8 8 8 9 9 9 7 9 6 3 3 2
29 26 24 21 20 17 15 16 11 9 8 6 5 5 5 8 9 10 11 11 12 12 13 14 13 13 12 12 11 10 10 10 10 10 9 10 10 7 9 10 7 5 3
29 27 25 22 19 19 16 13 10 10 8 8 8 5 4 5 7 9 10 11 12 13 15 15 15 15 16 15 12 10 11 11 13 12 13 12 13 12 7 9 9 8 6
30 29 26 23 20 18 15 14 11 10 8 7 6 5 6 6 6 6 7 9 9 10 12 14 14 16 16 17 16 15 13 12 14 15 15 14 15 16 13 9 8 9 7
33 31 27 24 21 19 17 14 12 10 9 7 6 6 7 7 7 7 8 8 9 11 11 11 12 14 15 15 16 18 16 15 15 16 17 18 16 17 16 14 11 11 9
32 31 28 26 23 20 17 15 13 11 10 9 7 6 6 7 6 6 7 6 7 6 7 8 9 10 11 12 14 15 15 16 17 17 17 17 19 20 19 19 17 14 12
34 31 29 27 24 22 18 16 14 12 10 9 8 7 6 6 6 7 7 7 7 7 7 6 7 8 8 9 10 13 15 15 16 18 19 20 20 20 21 21 21 19 14
34 32 31 28 26 23 20 17 14 12 10 8 7 6 6 7 7 6 6 6 6 6 7 7 6 6 7 8 10 10 12 13 14 16 17 18 20 21 22 24 23 22 20
34 33 31 28 26 23 20 17 15 13 11 10 9 8 8 7 7 7 7 7 6 6 6 6 6 6 6 7 8 10 11 12 12 13 14 15 17 19 22 24 26 25 24
36 34 32 29 26 23 21 19 16 14 12 10 8 6 5 5 5 5 6 6 7 8 7 7 7 6 6 7 8 8 9 10 12 12 12 13 13 15 19 22 28 28 29
37 35 32 29 26 24 21 18 15 13 10 8 6 5 4 3 3 3 4 4 4 5 7 7 7 6 5 5 6 7 8 8 8 8 9 10 11 12 13 15 19 25 27
37 36 34 30 27 25 21 18 15 12 9 6 4 3 3 3 3 4 5 5 5 5 6 6 6 6 5 5 6 6 6 7 7 7 7 8 9 10 10 12 12 15 19
37 35 33 30 27 25 22 19 15 12 10 7 5 3 2 3 4 6 7 7 8 8 8 8 9 8 6 5 5 6 5 5 5 6 6 6 6 7 8 9 10 11 14
38 38 35 32 30 28 25 21 18 14 10 7 5 5 4 4 4 6 7 7 7 8 9 9 9 10 9 7 3 3 5 6 7 5 4 5 4 5 7 9 10 11 11
42 40 37 34 31 27 23 21 18 15 12 9 7 5 4 5 6 6 6 7 7 8 8 9 9 11 12 12 10 6 0 4 8 9 7 6 5 7 9 9 10 12 12
43 43 39 35 31 28 25 22 19 16 13 10 8 6 6 7 7 7 7 7 8 8 9 9 11 11 11 12 10 6 3 2 7 8 11 9 7 8 11 10 11 12 13
44 41 37 34 31 29 26 23 18 15 13 11 8 7 7 8 8 9 9 8 9 9 10 11 11 12 11 10 9 7 6 6 4 7 6 9 11 11 10 9 10 10 11
42 42 37 33 31 29 26 23 20 17 14 11 9 8 8 9 9 10 9 10 10 10 11 11 11 11 11 11 10 9 8 8 8 7 17 16 17 14 12 12 10 9 10
38 38 36 33 31 29 26 23 19 17 14 11 9 8 8 10 10 10 11 11 11 11 11 12 12 12 12 13 13 12 11 10 12 11 16 22 23 21 17 13 11 10 10
Wind_Direction
187 188 185 179 188 194 193 198 201 210 200 176 155 155 148 131 130 129 130 125 120 112 113 114 113 108 108 96 87 86 86 95 105 111 110 110 105 93 84 81 80 91 100
182 184 182 187 194 204 199 204 198 217 229 223 198 187 173 159 151 148 146 143 137 143 133 134 116 108 127 119 100 95 97 101 110 115 116 113 99 97 90 85 74 78 99
178 181 172 178 194 208 202 199 211 229 226 234 229 218 201 187 188 188 180 172 168 175 137 159 155 141 131 142 129 132 125 114 118 114 114 113 106 93 90 89 79 86 86
176 181 185 170 176 206 217 220 222 206 195 209 197 184 190 196 201 214 212 212 214 223 203 186 167 175 175 162 162 163 140 127 128 131 126 113 105 83 81 83 88 82 91
174 173 170 164 159 157 199 213 225 215 191 195 202 192 197 203 212 208 222 226 214 220 221 216 217 204 204 187 182 143 173 148 149 152 140 107 116 101 79 71 74 72 79
173 174 167 165 162 152 179 199 209 191 187 185 199 195 187 206 216 220 219 231 231 227 231 238 233 226 221 200 185 162 167 166 159 167 166 129 129 117 98 78 70 69 70
177 180 172 164 173 165 148 157 150 165 185 178 196 207 214 195 205 222 234 235 232 244 235 241 240 247 249 257 231 190 166 174 183 176 182 157 126 120 138 88 70 76 69
186 186 185 161 168 182 178 193 203 210 214 204 216 219 228 226 220 217 227 236 235 237 244 247 247 242 246 251 245 219 194 192 200 198 188 187 165 109 139 127 104 72 85
188 190 190 184 175 174 177 204 190 220 243 252 253 243 228 249 248 245 232 233 245 245 241 245 249 256 256 255 251 240 224 213 210 207 204 201 196 197 166 151 145 146 127
191 194 196 192 189 191 194 193 192 205 214 235 252 257 236 233 249 264 266 258 249 242 240 240 240 243 247 251 253 248 237 220 217 212 207 206 213 220 207 197 184 157 164
193 197 199 197 194 196 197 198 197 193 201 212 230 250 275 279 275 267 258 265 261 250 249 246 243 242 241 244 247 245 242 233 228 222 217 214 209 221 218 211 214 205 194
194 194 199 198 199 198 195 195 198 203 210 216 223 234 246 262 269 274 274 266 262 264 261 256 247 242 242 241 241 244 241 236 232 231 228 224 221 222 222 218 219 227 220
198 199 199 202 204 206 204 203 201 202 204 210 216 226 239 253 267 276 282 280 275 269 261 258 255 246 241 240 239 237 236 231 234 236 238 231 227 229 227 228 228 235 236
201 202 203 203 204 203 204 204 202 201 203 207 212 217 225 237 251 262 273 282 284 284 277 262 254 257 255 248 243 240 241 236 233 235 239 240 238 234 236 237 238 230 236
203 202 202 203 202 203 203 203 203 206 210 219 231 244 259 269 274 275 276 280 280 276 277 279 277 265 258 260 258 253 248 246 243 240 242 242 240 238 237 239 241 246 241
206 205 203 202 202 202 203 203 203 205 207 211 215 224 236 251 265 276 286 290 293 294 294 291 286 282 275 269 264 259 261 259 253 247 246 249 246 243 240 235 236 237 238
207 205 204 202 201 201 201 203 204 206 209 212 216 221 230 239 247 260 272 286 299 305 305 302 301 301 299 293 286 276 262 257 255 253 248 247 247 245 242 241 240 236 233
208 203 202 201 200 199 200 202 203 204 205 208 211 222 238 252 257 268 278 282 294 305 306 308 309 311 306 286 276 279 284 275 262 249 237 237 242 244 247 247 244 246 244
207 204 202 201 200 199 197 197 199 199 199 208 223 241 268 292 312 325 328 329 323 322 323 319 318 316 321 319 303 290 267 254 248 247 244 237 238 244 249 252 249 247 245
207 204 203 199 198 196 195 193 192 193 198 206 222 246 269 293 317 333 340 348 349 351 352 349 347 344 343 336 326 309 278 242 223 221 230 238 248 255 260 264 262 259 253
205 202 201 199 198 199 196 193 194 197 200 210 219 234 253 273 305 323 329 335 340 342 345 353 357 358 356 357 3 305 250 248 236 229 232 236 260 278 283 284 281 273 269
203 202 200 200 200 199 202 199 198 196 198 207 217 233 255 283 302 309 315 317 324 332 336 341 346 353 355 359 4 4 50 256 237 239 257 260 287 306 305 298 295 292 288
202 201 200 199 199 198 197 198 196 196 198 203 216 239 261 279 291 296 301 305 312 319 324 331 336 343 352 356 2 15 2 337 320 266 247 240 279 308 313 310 307 302 298
202 202 200 199 198 198 199 200 203 207 205 207 221 242 262 279 289 294 297 299 304 311 318 322 328 332 338 341 346 347 333 313 328 297 255 262 289 307 311 312 310 309 308
203 200 200 199 199 201 201 203 203 202 205 212 222 242 263 273 278 284 287 291 297 304 309 314 318 321 324 326 327 321 318 312 299 289 303 303 300 308 313 316 317 315 313
203 200 199 199 201 202 202 204 206 208 209 214 227 244 261 272 277 279 281 285 292 298 302 306 308 309 308 308 307 303 300 299 294 294 294 305 311 313 320 322 325 325 316